EZY65P LGSK-LIMC

Flight info

Callsign EZY65P
Flight time 2h 7m
Altitude 36000
Route AGH UV651 YNN UL613 VJOSA DCT PAPIZ DCT GONOT DCT AIOSA DCT VELUG DCT UTAME DCT LANLI DCT KREVA DCT BAPLU DCT SRN
Aircraft A21N/M-SDE2E3FGHIRWXY/LB1

Departure

Time 2026-05-04 18:16
Airport Skiathos Island National Airport (LGSK)

Arrival

Time 2026-05-04 20:23
Airport Milan Malpensa International Airport (LIMC)
Time Latitude Longitude Altitude Speed Heading
2026-05-04 17:42 39.17817 23.50185 66 ft 0 kts 331°
2026-05-04 18:06 39.17805 23.50195 56 ft 4 kts 316°
2026-05-04 18:06 39.17792 23.50223 65 ft 5 kts 285°
2026-05-04 18:07 39.17786 23.50249 65 ft 5 kts 297°
2026-05-04 18:07 39.17770 23.50268 65 ft 5 kts 356°
2026-05-04 18:07 39.17748 23.50264 64 ft 1 kts 18°
2026-05-04 18:07 39.17747 23.50264 64 ft 2 kts 18°
2026-05-04 18:12 39.17748 23.50264 64 ft 1 kts 15°
2026-05-04 18:12 39.17762 23.50267 64 ft 3 kts
2026-05-04 18:12 39.17799 23.50274 66 ft 7 kts 13°
2026-05-04 18:13 39.17862 23.50295 69 ft 11 kts 18°
2026-05-04 18:13 39.17936 23.50354 73 ft 15 kts 72°
2026-05-04 18:13 39.18095 23.50537 76 ft 19 kts 18°
2026-05-04 18:14 39.18223 23.50594 75 ft 20 kts 19°
2026-05-04 18:14 39.18363 23.50653 84 ft 22 kts
2026-05-04 18:14 39.18384 23.50675 81 ft 8 kts 212°
2026-05-04 18:15 39.18364 23.50656 79 ft 2 kts 194°
2026-05-04 18:15 39.17559 23.50298 57 ft 138 kts 199°
2026-05-04 18:15 39.16579 23.49863 472 ft 152 kts 199°
2026-05-04 18:16 39.15572 23.49437 1137 ft 152 kts 198°
2026-05-04 18:16 39.14524 23.49030 1620 ft 165 kts 198°
2026-05-04 18:16 39.13396 23.48550 2201 ft 177 kts 198°
2026-05-04 18:17 39.10898 23.49502 3163 ft 223 kts 127°
2026-05-04 18:17 39.10357 23.51419 3692 ft 240 kts 89°
2026-05-04 18:17 39.12055 23.55150 4890 ft 259 kts 36°
2026-05-04 18:18 39.13480 23.56592 5829 ft 261 kts 37°
2026-05-04 18:18 39.14883 23.58082 6776 ft 262 kts 38°
2026-05-04 18:18 39.16268 23.59624 7712 ft 264 kts 39°
2026-05-04 18:18 39.17646 23.61203 8608 ft 266 kts 39°
2026-05-04 18:19 39.20756 23.63728 10339 ft 271 kts 13°
2026-05-04 18:19 39.22710 23.63825 10697 ft 295 kts 351°
2026-05-04 18:19 39.24699 23.62846 10992 ft 321 kts 331°
2026-05-04 18:20 39.26428 23.60879 11482 ft 341 kts 312°
2026-05-04 18:20 39.27692 23.58246 12217 ft 351 kts 299°
2026-05-04 18:20 39.28534 23.55300 12990 ft 357 kts 291°
2026-05-04 18:20 39.29261 23.52207 13760 ft 361 kts 290°
2026-05-04 18:21 39.29983 23.49083 14508 ft 364 kts 290°
2026-05-04 18:21 39.30713 23.45937 15237 ft 367 kts 290°
2026-05-04 18:21 39.31452 23.42758 15940 ft 371 kts 290°
2026-05-04 18:21 39.32202 23.39556 16601 ft 374 kts 290°
2026-05-04 18:22 39.32953 23.36346 17246 ft 376 kts 290°
2026-05-04 18:22 39.33714 23.33095 17865 ft 380 kts 290°
2026-05-04 18:22 39.34481 23.29816 18471 ft 383 kts 290°
2026-05-04 18:22 39.35254 23.26508 19008 ft 387 kts 290°
2026-05-04 18:23 39.36040 23.23152 19538 ft 391 kts 290°
2026-05-04 18:23 39.36824 23.19765 20055 ft 395 kts 290°
2026-05-04 18:23 39.37615 23.16341 20571 ft 400 kts 289°
2026-05-04 18:23 39.38406 23.12920 21058 ft 404 kts 289°
2026-05-04 18:24 39.39221 23.09426 21544 ft 408 kts 289°
2026-05-04 18:24 39.40047 23.05899 22045 ft 412 kts 289°
2026-05-04 18:24 39.40869 23.02339 22523 ft 416 kts 289°
2026-05-04 18:24 39.41700 22.98736 22992 ft 419 kts 289°
2026-05-04 18:25 39.42540 22.95092 23457 ft 423 kts 288°
2026-05-04 18:25 39.43382 22.91427 23910 ft 427 kts 288°
2026-05-04 18:25 39.44233 22.87728 24349 ft 430 kts 288°
2026-05-04 18:25 39.45087 22.83996 24797 ft 434 kts 288°
2026-05-04 18:26 39.45939 22.80250 25241 ft 436 kts 288°
2026-05-04 18:26 39.46782 22.76506 25660 ft 439 kts 288°
2026-05-04 18:26 39.47654 22.72653 26083 ft 442 kts 288°
2026-05-04 18:26 39.48520 22.68821 26499 ft 444 kts 288°
2026-05-04 18:27 39.49380 22.65032 26894 ft 447 kts 288°
2026-05-04 18:27 39.50261 22.61160 27267 ft 449 kts 288°
2026-05-04 18:27 39.51151 22.57267 27628 ft 452 kts 288°
2026-05-04 18:27 39.52043 22.53357 27986 ft 454 kts 288°
2026-05-04 18:28 39.52933 22.49413 28329 ft 456 kts 287°
2026-05-04 18:28 39.53819 22.45457 28659 ft 459 kts 287°
2026-05-04 18:28 39.54715 22.41479 28970 ft 461 kts 287°
2026-05-04 18:28 39.55612 22.37473 29274 ft 463 kts 287°
2026-05-04 18:29 39.56507 22.33465 29639 ft 463 kts 287°
2026-05-04 18:29 39.57405 22.29456 30032 ft 463 kts 287°
2026-05-04 18:29 39.58302 22.25446 30422 ft 462 kts 287°
2026-05-04 18:29 39.59193 22.21440 30873 ft 460 kts 287°
2026-05-04 18:30 39.60652 22.14858 31648 ft 454 kts 287°
2026-05-04 18:30 39.61520 22.10931 32127 ft 450 kts 287°
2026-05-04 18:30 39.62378 22.07044 32580 ft 446 kts 288°
2026-05-04 18:31 39.63226 22.03199 33034 ft 442 kts 288°
2026-05-04 18:31 39.64066 21.99383 33468 ft 438 kts 288°
2026-05-04 18:31 39.64900 21.95600 33870 ft 434 kts 288°
2026-05-04 18:31 39.65734 21.91855 34270 ft 430 kts 289°
2026-05-04 18:32 39.66557 21.88137 34605 ft 428 kts 289°
2026-05-04 18:32 39.67364 21.84468 34882 ft 427 kts 289°
2026-05-04 18:32 39.68183 21.80773 35129 ft 426 kts 289°
2026-05-04 18:32 39.69001 21.77075 35365 ft 426 kts 289°
2026-05-04 18:33 39.69804 21.73372 35578 ft 426 kts 288°
2026-05-04 18:33 39.70607 21.69668 35798 ft 425 kts 289°
2026-05-04 18:33 39.71409 21.65967 36001 ft 425 kts 289°
2026-05-04 18:33 39.72215 21.62264 36159 ft 426 kts 289°
2026-05-04 18:34 39.73017 21.58570 36177 ft 425 kts 289°
2026-05-04 18:34 39.74611 21.51182 36151 ft 424 kts 289°
2026-05-04 18:35 39.76201 21.43808 36138 ft 423 kts 288°
2026-05-04 18:35 39.77789 21.36437 36143 ft 422 kts 289°
2026-05-04 18:36 39.79354 21.29125 36145 ft 421 kts 289°
2026-05-04 18:36 39.80923 21.21800 36145 ft 420 kts 289°
2026-05-04 18:37 39.82487 21.14468 36161 ft 419 kts 289°
2026-05-04 18:37 39.84032 21.07163 36168 ft 419 kts 289°
2026-05-04 18:38 39.85575 20.99858 36173 ft 418 kts 289°
2026-05-04 18:38 39.87098 20.92608 36181 ft 417 kts 289°
2026-05-04 18:39 39.88625 20.85319 36174 ft 417 kts 289°
2026-05-04 18:39 39.90153 20.78023 36167 ft 417 kts 288°
2026-05-04 18:40 39.91672 20.70741 36176 ft 416 kts 289°
2026-05-04 18:40 39.93184 20.63451 36171 ft 417 kts 289°
2026-05-04 18:41 39.94683 20.56202 36161 ft 416 kts 289°
2026-05-04 18:41 39.96188 20.48907 36160 ft 416 kts 288°
2026-05-04 18:42 39.97749 20.41645 36158 ft 414 kts 293°
2026-05-04 18:42 40.00632 20.35251 36161 ft 409 kts 311°
2026-05-04 18:43 40.04322 20.29600 36151 ft 409 kts 312°
2026-05-04 18:43 40.08003 20.23935 36144 ft 409 kts 312°
2026-05-04 18:44 40.11666 20.18243 36149 ft 409 kts 311°
2026-05-04 18:44 40.15305 20.12578 36150 ft 409 kts 311°
2026-05-04 18:45 40.18951 20.06882 36149 ft 408 kts 311°
2026-05-04 18:45 40.22585 20.01178 36153 ft 409 kts 311°
2026-05-04 18:46 40.26225 19.95453 36144 ft 407 kts 311°
2026-05-04 18:46 40.29860 19.89746 36154 ft 408 kts 311°
2026-05-04 18:47 40.33494 19.84023 36147 ft 409 kts 311°
2026-05-04 18:47 40.37139 19.78297 36129 ft 409 kts 311°
2026-05-04 18:48 40.40765 19.72600 36140 ft 409 kts 311°
2026-05-04 18:48 40.44413 19.66844 36132 ft 409 kts 311°
2026-05-04 18:49 40.48043 19.61094 36127 ft 408 kts 311°
2026-05-04 18:49 40.51661 19.55352 36126 ft 408 kts 311°
2026-05-04 18:50 40.55276 19.49598 36145 ft 409 kts 311°
2026-05-04 18:50 40.58905 19.43820 36133 ft 409 kts 311°
2026-05-04 18:51 40.62504 19.38075 36144 ft 409 kts 311°
2026-05-04 18:51 40.66130 19.32280 36142 ft 409 kts 311°
2026-05-04 18:52 40.69740 19.26493 36142 ft 408 kts 311°
2026-05-04 18:52 40.73347 19.20703 36150 ft 408 kts 311°
2026-05-04 18:53 40.76924 19.14948 36141 ft 408 kts 311°
2026-05-04 18:53 40.80526 19.09143 36145 ft 409 kts 311°
2026-05-04 18:54 40.84134 19.03314 36142 ft 409 kts 311°
2026-05-04 18:54 40.87738 18.97490 36132 ft 409 kts 311°
2026-05-04 18:55 40.91336 18.91647 36126 ft 409 kts 311°
2026-05-04 18:55 40.96687 18.82902 36137 ft 409 kts 311°
2026-05-04 18:56 41.00262 18.77052 36139 ft 408 kts 311°
2026-05-04 18:56 41.03840 18.71207 36131 ft 409 kts 310°
2026-05-04 18:57 41.07420 18.65339 36128 ft 409 kts 311°
2026-05-04 18:57 41.11006 18.59481 36136 ft 409 kts 310°
2026-05-04 18:58 41.14554 18.53638 36136 ft 409 kts 310°
2026-05-04 18:58 41.18120 18.47759 36124 ft 408 kts 310°
2026-05-04 18:59 41.21665 18.41883 36122 ft 408 kts 310°
2026-05-04 18:59 41.25237 18.35998 36124 ft 409 kts 311°
2026-05-04 19:00 41.28851 18.30171 36127 ft 409 kts 311°
2026-05-04 19:00 41.32463 18.24327 36130 ft 409 kts 311°
2026-05-04 19:01 41.36081 18.18482 36117 ft 409 kts 311°
2026-05-04 19:01 41.39683 18.12633 36115 ft 408 kts 311°
2026-05-04 19:02 41.43288 18.06774 36133 ft 408 kts 311°
2026-05-04 19:02 41.46854 18.00939 36122 ft 408 kts 310°
2026-05-04 19:03 41.50447 17.95063 36124 ft 407 kts 310°
2026-05-04 19:03 41.54027 17.89209 36120 ft 407 kts 310°
2026-05-04 19:04 41.57596 17.83346 36116 ft 407 kts 310°
2026-05-04 19:04 41.61135 17.77505 36116 ft 407 kts 310°
2026-05-04 19:05 41.64694 17.71626 36128 ft 407 kts 310°
2026-05-04 19:05 41.68264 17.65748 36120 ft 407 kts 310°
2026-05-04 19:06 41.71828 17.59855 36117 ft 407 kts 310°
2026-05-04 19:06 41.75380 17.53960 36116 ft 407 kts 310°
2026-05-04 19:07 41.78904 17.48095 36133 ft 406 kts 310°
2026-05-04 19:07 41.82450 17.42190 36125 ft 407 kts 310°
2026-05-04 19:08 41.85993 17.36261 36127 ft 407 kts 310°
2026-05-04 19:08 41.89532 17.30346 36121 ft 406 kts 310°
2026-05-04 19:09 41.93062 17.24400 36120 ft 406 kts 308°
2026-05-04 19:09 41.96456 17.18313 36118 ft 406 kts 308°
2026-05-04 19:10 41.99829 17.12237 36124 ft 405 kts 308°
2026-05-04 19:10 42.03218 17.06122 36121 ft 410 kts 307°
2026-05-04 19:11 42.06603 17.00009 36115 ft 410 kts 307°
2026-05-04 19:11 42.10010 16.93842 36121 ft 410 kts 307°
2026-05-04 19:12 42.15101 16.84590 36128 ft 409 kts 307°
2026-05-04 19:13 42.18486 16.78429 36131 ft 409 kts 307°
2026-05-04 19:13 42.21875 16.72244 36119 ft 410 kts 307°
2026-05-04 19:14 42.25258 16.66063 36118 ft 409 kts 307°
2026-05-04 19:14 42.28637 16.59870 36115 ft 409 kts 307°
2026-05-04 19:15 42.31998 16.53678 36123 ft 409 kts 306°
2026-05-04 19:15 42.35325 16.47516 36122 ft 408 kts 306°
2026-05-04 19:16 42.38674 16.41316 36118 ft 408 kts 306°
2026-05-04 19:16 42.42030 16.35123 36118 ft 408 kts 306°
2026-05-04 19:17 42.45383 16.28929 36125 ft 408 kts 306°
2026-05-04 19:17 42.48744 16.22721 36112 ft 409 kts 306°
2026-05-04 19:18 42.52107 16.16496 36109 ft 409 kts 306°
2026-05-04 19:18 42.54890 16.11324 36110 ft 409 kts 306°
2026-05-04 19:19 42.58784 16.04069 36112 ft 409 kts 306°
2026-05-04 19:19 42.61563 15.98876 36108 ft 409 kts 306°
2026-05-04 19:20 42.64893 15.92630 36108 ft 407 kts 306°
2026-05-04 19:20 42.68214 15.86381 36108 ft 407 kts 306°
2026-05-04 19:21 42.71541 15.80131 36108 ft 407 kts 306°
2026-05-04 19:21 42.74858 15.73879 36110 ft 408 kts 306°
2026-05-04 19:22 42.78146 15.67638 36111 ft 408 kts 305°
2026-05-04 19:22 42.81395 15.61474 36113 ft 409 kts 305°
2026-05-04 19:23 42.84720 15.55184 36109 ft 409 kts 305°
2026-05-04 19:23 42.88043 15.48881 36111 ft 409 kts 305°
2026-05-04 19:24 42.91317 15.42544 36111 ft 409 kts 303°
2026-05-04 19:24 42.94469 15.36058 36113 ft 409 kts 303°
2026-05-04 19:25 42.97626 15.29597 36111 ft 409 kts 303°
2026-05-04 19:25 43.00771 15.23124 36108 ft 408 kts 303°
2026-05-04 19:26 43.03884 15.16698 36112 ft 408 kts 303°
2026-05-04 19:26 43.07016 15.10193 36109 ft 409 kts 303°
2026-05-04 19:27 43.10158 15.03684 36112 ft 410 kts 303°
2026-05-04 19:27 43.13291 14.97165 36116 ft 410 kts 303°
2026-05-04 19:28 43.16425 14.90638 36113 ft 410 kts 303°
2026-05-04 19:28 43.19553 14.84097 36113 ft 410 kts 302°
2026-05-04 19:29 43.22662 14.77594 36104 ft 411 kts 303°
2026-05-04 19:29 43.25799 14.71027 36101 ft 411 kts 302°
2026-05-04 19:30 43.28919 14.64453 36099 ft 411 kts 302°
2026-05-04 19:30 43.32047 14.57868 36100 ft 412 kts 302°
2026-05-04 19:31 43.35172 14.51268 36100 ft 412 kts 302°
2026-05-04 19:31 43.38299 14.44647 36101 ft 413 kts 302°
2026-05-04 19:32 43.41441 14.38015 36099 ft 413 kts 302°
2026-05-04 19:32 43.44545 14.31419 36101 ft 414 kts 302°
2026-05-04 19:33 43.47678 14.24756 36100 ft 415 kts 302°
2026-05-04 19:33 43.50757 14.18100 36100 ft 415 kts 301°
2026-05-04 19:34 43.53828 14.11341 36100 ft 416 kts 301°
2026-05-04 19:34 43.56905 14.04568 36102 ft 417 kts 301°
2026-05-04 19:35 43.59983 13.97783 36100 ft 417 kts 301°
2026-05-04 19:35 43.63064 13.91005 36092 ft 417 kts 301°
2026-05-04 19:36 43.66152 13.84210 36091 ft 417 kts 301°
2026-05-04 19:36 43.69218 13.77391 36089 ft 417 kts 301°
2026-05-04 19:37 43.72273 13.70633 36085 ft 418 kts 301°
2026-05-04 19:37 43.75332 13.63811 36079 ft 416 kts 300°
2026-05-04 19:38 43.78390 13.56997 36080 ft 416 kts 301°
2026-05-04 19:38 43.81445 13.50189 36079 ft 416 kts 300°
2026-05-04 19:39 43.84474 13.43361 36081 ft 415 kts 300°
2026-05-04 19:39 43.87510 13.36556 36081 ft 415 kts 300°
2026-05-04 19:40 43.90522 13.29749 36088 ft 414 kts 300°
2026-05-04 19:40 43.93523 13.22990 36088 ft 413 kts 300°
2026-05-04 19:41 43.96526 13.16186 36091 ft 413 kts 300°
2026-05-04 19:41 43.99484 13.09346 36091 ft 412 kts 299°
2026-05-04 19:42 44.02448 13.02494 36085 ft 417 kts 300°
2026-05-04 19:42 44.05430 12.95555 36083 ft 419 kts 300°
2026-05-04 19:43 44.08423 12.88604 36081 ft 419 kts 299°
2026-05-04 19:43 44.11409 12.81644 36080 ft 418 kts 299°
2026-05-04 19:44 44.14371 12.74741 36079 ft 418 kts 299°
2026-05-04 19:44 44.17341 12.67775 36080 ft 418 kts 299°
2026-05-04 19:45 44.20314 12.60806 36080 ft 418 kts 299°
2026-05-04 19:45 44.23272 12.53842 36079 ft 417 kts 299°
2026-05-04 19:46 44.26231 12.46870 36080 ft 417 kts 299°
2026-05-04 19:46 44.29175 12.39914 36079 ft 416 kts 299°
2026-05-04 19:47 44.32114 12.32953 36074 ft 416 kts 298°
2026-05-04 19:47 44.34991 12.26013 36063 ft 415 kts 298°
2026-05-04 19:48 44.37940 12.19053 36071 ft 416 kts 299°
2026-05-04 19:48 44.40892 12.12088 36059 ft 416 kts 299°
2026-05-04 19:49 44.43802 12.05113 36062 ft 416 kts 298°
2026-05-04 19:49 44.46699 11.98110 36065 ft 416 kts 298°
2026-05-04 19:50 44.49614 11.91105 36077 ft 416 kts 298°
2026-05-04 19:50 44.52515 11.84131 36072 ft 416 kts 298°
2026-05-04 19:51 44.55436 11.77116 36072 ft 416 kts 298°
2026-05-04 19:51 44.58358 11.70102 36057 ft 417 kts 298°
2026-05-04 19:52 44.61274 11.63064 36058 ft 417 kts 298°
2026-05-04 19:52 44.64157 11.56058 36053 ft 417 kts 298°
2026-05-04 19:53 44.67057 11.48985 36060 ft 418 kts 298°
2026-05-04 19:53 44.69932 11.41958 35500 ft 412 kts 297°
2026-05-04 19:53 44.71365 11.38446 34624 ft 416 kts 297°
2026-05-04 19:54 44.72808 11.34891 33718 ft 420 kts 297°
2026-05-04 19:54 44.74270 11.31316 32811 ft 424 kts 298°
2026-05-04 19:54 44.75757 11.27707 31915 ft 427 kts 298°
2026-05-04 19:54 44.77243 11.24092 31171 ft 426 kts 298°
2026-05-04 19:55 44.78698 11.20545 30534 ft 423 kts 298°
2026-05-04 19:55 44.80169 11.16951 29900 ft 420 kts 298°
2026-05-04 19:55 44.81617 11.13407 29268 ft 416 kts 298°
2026-05-04 19:55 44.83050 11.09888 28624 ft 413 kts 297°
2026-05-04 19:56 44.84477 11.06384 27979 ft 410 kts 298°
2026-05-04 19:56 44.85892 11.02905 27342 ft 407 kts 298°
2026-05-04 19:56 44.87294 10.99450 26704 ft 404 kts 297°
2026-05-04 19:56 44.88686 10.96018 26071 ft 401 kts 297°
2026-05-04 19:57 44.90041 10.92665 25452 ft 399 kts 298°
2026-05-04 19:57 44.91397 10.89308 24837 ft 396 kts 298°
2026-05-04 19:57 44.92755 10.85955 24225 ft 393 kts 298°
2026-05-04 19:57 44.94109 10.82608 23610 ft 390 kts 298°
2026-05-04 19:58 44.95446 10.79288 23010 ft 387 kts 298°
2026-05-04 19:58 44.96771 10.75998 22431 ft 384 kts 298°
2026-05-04 19:58 44.98067 10.72779 21872 ft 380 kts 298°
2026-05-04 19:58 44.99370 10.69542 21313 ft 376 kts 297°
2026-05-04 19:59 45.00653 10.66338 20746 ft 373 kts 297°
2026-05-04 19:59 45.01930 10.63150 20182 ft 370 kts 297°
2026-05-04 19:59 45.03191 10.60004 19626 ft 367 kts 297°
2026-05-04 19:59 45.04438 10.56882 19085 ft 364 kts 297°
2026-05-04 20:00 45.05678 10.53780 18539 ft 360 kts 297°
2026-05-04 20:00 45.06909 10.50701 17988 ft 357 kts 297°
2026-05-04 20:00 45.08123 10.47654 17455 ft 354 kts 297°
2026-05-04 20:00 45.09329 10.44626 16902 ft 352 kts 297°
2026-05-04 20:01 45.10526 10.41617 16347 ft 350 kts 297°
2026-05-04 20:01 45.11716 10.38618 15791 ft 348 kts 297°
2026-05-04 20:01 45.12896 10.35646 15237 ft 346 kts 297°
2026-05-04 20:01 45.14074 10.32676 14692 ft 344 kts 297°
2026-05-04 20:02 45.15243 10.29726 14157 ft 342 kts 296°
2026-05-04 20:02 45.16403 10.26791 13626 ft 340 kts 296°
2026-05-04 20:02 45.17536 10.23907 13105 ft 339 kts 296°
2026-05-04 20:02 45.18686 10.20986 12580 ft 337 kts 296°
2026-05-04 20:03 45.19824 10.18095 12064 ft 335 kts 296°
2026-05-04 20:03 45.20962 10.15213 11550 ft 334 kts 296°
2026-05-04 20:03 45.22096 10.12344 11034 ft 332 kts 296°
2026-05-04 20:03 45.23216 10.09508 10693 ft 326 kts 296°
2026-05-04 20:04 45.24303 10.06743 10497 ft 315 kts 296°
2026-05-04 20:04 45.25350 10.04081 10340 ft 303 kts 296°
2026-05-04 20:04 45.26359 10.01509 10099 ft 296 kts 296°
2026-05-04 20:04 45.27351 9.98974 9731 ft 293 kts 296°
2026-05-04 20:05 45.28344 9.96436 9312 ft 293 kts 297°
2026-05-04 20:05 45.29330 9.93911 8892 ft 292 kts 297°
2026-05-04 20:05 45.29983 9.92239 8624 ft 292 kts 297°
2026-05-04 20:05 45.30965 9.89726 8229 ft 290 kts 297°
2026-05-04 20:06 45.31941 9.87224 7851 ft 289 kts 297°
2026-05-04 20:06 45.32927 9.83759 7340 ft 284 kts 279°
2026-05-04 20:06 45.33091 9.81890 7085 ft 281 kts 272°
2026-05-04 20:06 45.33223 9.78237 6591 ft 279 kts 271°
2026-05-04 20:07 45.33283 9.76415 6431 ft 278 kts 271°
2026-05-04 20:07 45.33382 9.73677 6218 ft 277 kts 271°
2026-05-04 20:07 45.33484 9.70944 6063 ft 277 kts 271°
2026-05-04 20:07 45.33592 9.68215 5927 ft 276 kts 271°
2026-05-04 20:08 45.33699 9.65495 5799 ft 275 kts 271°
2026-05-04 20:08 45.33808 9.62786 5674 ft 275 kts 271°
2026-05-04 20:08 45.33918 9.60078 5548 ft 274 kts 272°
2026-05-04 20:08 45.34029 9.57377 5422 ft 273 kts 272°
2026-05-04 20:09 45.34138 9.54681 5297 ft 273 kts 272°
2026-05-04 20:09 45.34249 9.51902 5190 ft 301 kts 272°
2026-05-04 20:09 45.34375 9.48781 5090 ft 325 kts 272°
2026-05-04 20:09 45.34502 9.45574 4978 ft 325 kts 272°
2026-05-04 20:10 45.34627 9.42404 4860 ft 325 kts 272°
2026-05-04 20:10 45.34758 9.39160 4735 ft 324 kts 272°
2026-05-04 20:10 45.34878 9.36011 4612 ft 323 kts 272°
2026-05-04 20:10 45.35000 9.32821 4486 ft 323 kts 272°
2026-05-04 20:11 45.35123 9.29628 4346 ft 322 kts 272°
2026-05-04 20:11 45.35245 9.26458 4235 ft 321 kts 272°
2026-05-04 20:11 45.35367 9.23303 4105 ft 312 kts 272°
2026-05-04 20:11 45.35481 9.20292 3974 ft 299 kts 272°
2026-05-04 20:12 45.35590 9.17431 3940 ft 283 kts 272°
2026-05-04 20:12 45.35669 9.15332 3935 ft 270 kts 272°
2026-05-04 20:12 45.35708 9.12743 3941 ft 252 kts 262°
2026-05-04 20:12 45.35310 9.10437 3958 ft 243 kts 250°
2026-05-04 20:13 45.34761 9.08153 3977 ft 245 kts 250°
2026-05-04 20:13 45.34217 9.05893 3980 ft 235 kts 250°
2026-05-04 20:13 45.33696 9.03690 3983 ft 234 kts 250°
2026-05-04 20:13 45.33181 9.01490 3988 ft 235 kts 251°
2026-05-04 20:14 45.32672 8.99284 3989 ft 235 kts 251°
2026-05-04 20:14 45.32163 8.97077 3990 ft 235 kts 251°
2026-05-04 20:14 45.31660 8.94869 3993 ft 235 kts 251°
2026-05-04 20:14 45.31155 8.92660 3993 ft 235 kts 251°
2026-05-04 20:15 45.30645 8.90452 3988 ft 235 kts 251°
2026-05-04 20:15 45.30142 8.88247 3987 ft 235 kts 251°
2026-05-04 20:15 45.29674 8.86023 3988 ft 232 kts 258°
2026-05-04 20:15 45.29756 8.83775 3970 ft 231 kts 290°
2026-05-04 20:16 45.30667 8.81954 3988 ft 232 kts 323°
2026-05-04 20:16 45.32130 8.81034 4003 ft 232 kts 348°
2026-05-04 20:16 45.33655 8.80668 4011 ft 231 kts 352°
2026-05-04 20:16 45.35243 8.80314 4006 ft 231 kts 351°
2026-05-04 20:17 45.36830 8.79934 4002 ft 231 kts 352°
2026-05-04 20:17 45.38426 8.79668 3997 ft 231 kts 354°
2026-05-04 20:17 45.40025 8.79435 3990 ft 231 kts 354°
2026-05-04 20:17 45.41623 8.79161 3982 ft 231 kts 352°
2026-05-04 20:18 45.43163 8.78808 3974 ft 215 kts 349°
2026-05-04 20:18 45.44608 8.78422 3946 ft 210 kts 349°
2026-05-04 20:18 45.45977 8.78047 3820 ft 196 kts 349°
2026-05-04 20:18 45.47276 8.77691 3582 ft 184 kts 349°
2026-05-04 20:19 45.48493 8.77356 3347 ft 174 kts 349°
2026-05-04 20:19 45.49639 8.77041 3084 ft 161 kts 349°
2026-05-04 20:19 45.50730 8.76740 2872 ft 153 kts 349°
2026-05-04 20:19 45.51716 8.76469 2684 ft 141 kts 349°
2026-05-04 20:20 45.52678 8.76204 2494 ft 140 kts 348°
2026-05-04 20:20 45.53637 8.75940 2307 ft 141 kts 348°
2026-05-04 20:20 45.54598 8.75675 2120 ft 140 kts 347°
2026-05-04 20:20 45.55554 8.75411 1932 ft 140 kts 346°
2026-05-04 20:21 45.56511 8.75148 1748 ft 140 kts 346°
2026-05-04 20:21 45.57465 8.74885 1562 ft 139 kts 346°
2026-05-04 20:21 45.59350 8.74364 1194 ft 138 kts 347°
2026-05-04 20:22 45.60295 8.74103 1008 ft 137 kts 347°
2026-05-04 20:22 45.61241 8.73841 867 ft 137 kts 347°
2026-05-04 20:22 45.62154 8.73588 772 ft 128 kts 347°
2026-05-04 20:22 45.62866 8.73393 764 ft 76 kts 349°
2026-05-04 20:23 45.63207 8.73299 764 ft 34 kts 349°
2026-05-04 20:23 45.63393 8.73247 764 ft 25 kts 349°
2026-05-04 20:23 45.63575 8.73195 767 ft 28 kts 346°
2026-05-04 20:23 45.63709 8.73072 766 ft 7 kts 321°
2026-05-04 20:24 45.63751 8.73020 765 ft 9 kts 319°
2026-05-04 20:24 45.63798 8.72950 764 ft 11 kts 310°
2026-05-04 20:24 45.63848 8.72855 764 ft 13 kts 305°
2026-05-04 20:24 45.63901 8.72736 764 ft 15 kts 301°
2026-05-04 20:25 45.63964 8.72602 764 ft 17 kts 310°
2026-05-04 20:25 45.64073 8.72524 764 ft 19 kts 349°
2026-05-04 20:25 45.64209 8.72486 764 ft 21 kts 349°
2026-05-04 20:25 45.64345 8.72448 764 ft 11 kts 348°
2026-05-04 20:26 45.64431 8.72430 764 ft 14 kts 17°
2026-05-04 20:26 45.64455 8.72473 764 ft 6 kts 69°
2026-05-04 20:26 45.64483 8.72494 764 ft 3 kts
2026-05-04 20:26 45.64513 8.72485 764 ft 4 kts 348°
2026-05-04 20:27 45.64522 8.72481 764 ft 3 kts 348°
2026-05-04 20:27 45.64534 8.72477 764 ft 0 kts 349°